• In Hungary
  • List of Countries
  • For 7 days
  • Water Temperature
  • Satellite Maps
  • Weather Map
  • News
  • Weather Widgets
  • user-avatar
    Login

    Hourly Weather Smolyanka

    Today, 23 May, Wednesday

    Time Temperature Precipitation Wind Pressure Humidity
    00:00 +9°C° 0 mm 1 mps 760 mmHg 48%
    01:00 +8°C° 0 mm 1 mps 760 mmHg 49%
    02:00 +8°C° 0 mm 1 mps 759 mmHg 51%
    03:00 +8°C° 0 mm 1 mps 759 mmHg 52%
    04:00 +6°C° 0 mm 2 mps 759 mmHg 53%
    05:00 +8°C° 0 mm 2 mps 759 mmHg 49%
    06:00 +10°C° 0 mm 3 mps 758 mmHg 45%
    07:00 +11°C° 0 mm 3 mps 757 mmHg 40%
    08:00 +12°C° 0 mm 4 mps 757 mmHg 40%
    09:00 +13°C° 0 mm 4 mps 756 mmHg 39%
    10:00 +14°C° 0 mm 4 mps 755 mmHg 39%
    11:00 +16°C° 0 mm 5 mps 754 mmHg 43%
    12:00 +17°C° 0 mm 5 mps 753 mmHg 48%
    13:00 +20°C° 0 mm 5 mps 753 mmHg 53%
    14:00 +21°C° 0 mm 5 mps 752 mmHg 50%
    15:00 +22°C° 0 mm 5 mps 751 mmHg 48%
    16:00 +23°C° 0 mm 5 mps 750 mmHg 45%
    17:00 +22°C° 0.2 mm 4 mps 749 mmHg 49%
    18:00 +21°C° 0.2 mm 4 mps 749 mmHg 54%
    19:00 +21°C° 0.2 mm 3 mps 748 mmHg 58%
    20:00 +19°C° 0.2 mm 3 mps 748 mmHg 66%
    21:00 +17°C° 0.2 mm 3 mps 747 mmHg 73%
    22:00 +16°C° 0.2 mm 3 mps 747 mmHg 81%
    23:00 +14°C° 0.2 mm 3 mps 747 mmHg 84%

    Tomorrow, 24 May, Thursday

    Time Temperature Precipitation Wind Pressure Humidity
    00:00 +14°C° 0.2 mm 3 mps 747 mmHg 87%
    01:00 +13°C° 0.2 mm 3 mps 746 mmHg 90%
    02:00 +12°C° 0.1 mm 3 mps 747 mmHg 90%
    03:00 +12°C° 0.1 mm 3 mps 747 mmHg 90%
    04:00 +11°C° 0.1 mm 3 mps 748 mmHg 91%
    05:00 +10°C° 0 mm 3 mps 748 mmHg 86%
    06:00 +8°C° 0 mm 4 mps 749 mmHg 82%
    07:00 +7°C° 0 mm 4 mps 750 mmHg 78%
    08:00 +8°C° 0 mm 4 mps 750 mmHg 68%
    09:00 +8°C° 0 mm 4 mps 751 mmHg 58%
    10:00 +10°C° 0 mm 4 mps 751 mmHg 49%
    11:00 +11°C° 0 mm 4 mps 752 mmHg 43%
    12:00 +12°C° 0 mm 4 mps 752 mmHg 37%
    13:00 +13°C° 0 mm 4 mps 752 mmHg 31%
    14:00 +13°C° 0 mm 4 mps 752 mmHg 32%
    15:00 +13°C° 0 mm 4 mps 752 mmHg 33%
    16:00 +13°C° 0 mm 4 mps 752 mmHg 33%
    17:00 +12°C° 0 mm 4 mps 752 mmHg 36%
    18:00 +11°C° 0 mm 4 mps 753 mmHg 38%
    19:00 +11°C° 0 mm 4 mps 753 mmHg 40%
    20:00 +9°C° 0 mm 3 mps 753 mmHg 44%
    21:00 +8°C° 0 mm 3 mps 753 mmHg 48%
    22:00 +7°C° 0 mm 2 mps 753 mmHg 53%
    23:00 +6°C° 0 mm 2 mps 753 mmHg 57%

    Day after tomorrow, 25 May, Friday

    Time Temperature Precipitation Wind Pressure Humidity
    00:00 +5°C° 0 mm 2 mps 754 mmHg 60%
    01:00 +4°C° 0 mm 2 mps 754 mmHg 64%
    02:00 +4°C° 0 mm 2 mps 754 mmHg 66%
    03:00 +4°C° 0 mm 2 mps 754 mmHg 67%
    04:00 +2°C° 0 mm 3 mps 755 mmHg 69%
    05:00 +3°C° 0 mm 3 mps 755 mmHg 64%
    06:00 +3°C° 0 mm 3 mps 755 mmHg 59%
    07:00 +3°C° 0 mm 4 mps 755 mmHg 54%
    08:00 +4°C° 0 mm 4 mps 755 mmHg 51%
    09:00 +4°C° 0 mm 4 mps 756 mmHg 49%
    10:00 +4°C° 0 mm 4 mps 756 mmHg 46%
    11:00 +5°C° 0 mm 4 mps 756 mmHg 44%
    12:00 +5°C° 0 mm 4 mps 756 mmHg 41%
    13:00 +6°C° 0 mm 5 mps 756 mmHg 38%
    14:00 +6°C° 0 mm 5 mps 756 mmHg 37%
    15:00 +7°C° 0 mm 4 mps 757 mmHg 36%
    16:00 +7°C° 0 mm 4 mps 757 mmHg 34%
    17:00 +7°C° 0 mm 4 mps 757 mmHg 35%
    18:00 +7°C° 0 mm 4 mps 757 mmHg 36%
    19:00 +6°C° 0 mm 4 mps 758 mmHg 37%
    20:00 +4°C° 0 mm 3 mps 758 mmHg 44%
    21:00 +4°C° 0 mm 2 mps 758 mmHg 51%
    22:00 +3°C° 0 mm 1 mps 758 mmHg 57%
    23:00 +3°C° 0 mm 1 mps 758 mmHg 59%

    26 May, Saturday

    Time Temperature Precipitation Wind Pressure Humidity
    00:00 +2°C° 0 mm 1 mps 758 mmHg 60%
    01:00 +2°C° 0 mm 1 mps 758 mmHg 62%
    02:00 +2°C° 0 mm 1 mps 758 mmHg 62%
    03:00 +2°C° 0 mm 2 mps 758 mmHg 62%
    04:00 +2°C° 0 mm 2 mps 758 mmHg 62%
    05:00 +4°C° 0 mm 2 mps 758 mmHg 61%
    06:00 +5°C° 0 mm 2 mps 758 mmHg 61%
    07:00 +7°C° 0 mm 2 mps 758 mmHg 60%
    08:00 +8°C° 0 mm 3 mps 758 mmHg 58%
    09:00 +9°C° 0 mm 3 mps 757 mmHg 55%
    10:00 +10°C° 0 mm 3 mps 757 mmHg 52%
    11:00 +11°C° 0 mm 3 mps 757 mmHg 51%
    12:00 +11°C° 0 mm 3 mps 757 mmHg 49%
    13:00 +12°C° 0 mm 3 mps 757 mmHg 47%
    14:00 +12°C° 0 mm 3 mps 756 mmHg 44%
    15:00 +13°C° 0 mm 3 mps 756 mmHg 42%
    16:00 +14°C° 0 mm 3 mps 756 mmHg 39%
    17:00 +15°C° 0 mm 2 mps 756 mmHg 40%
    18:00 +15°C° 0 mm 1 mps 755 mmHg 41%
    19:00 +15°C° 0 mm 1 mps 755 mmHg 42%
    20:00 +13°C° 0 mm 1 mps 755 mmHg 50%
    21:00 +11°C° 0 mm 1 mps 755 mmHg 57%
    22:00 +8°C° 0 mm 1 mps 755 mmHg 64%
    23:00 +7°C° 0 mm 2 mps 754 mmHg 66%

    27 May, Sunday

    Time Temperature Precipitation Wind Pressure Humidity
    00:00 +7°C° 0 mm 2 mps 753 mmHg 68%
    01:00 +6°C° 0 mm 2 mps 753 mmHg 71%
    02:00 +7°C° 0 mm 3 mps 752 mmHg 69%
    03:00 +7°C° 0 mm 3 mps 751 mmHg 67%
    04:00 +7°C° 0 mm 4 mps 749 mmHg 65%
    05:00 +8°C° 0.1 mm 4 mps 748 mmHg 65%
    06:00 +11°C° 0.1 mm 4 mps 747 mmHg 65%
    07:00 +12°C° 0.1 mm 4 mps 745 mmHg 65%
    08:00 +12°C° 1.4 mm 4 mps 744 mmHg 70%
    09:00 +13°C° 1.4 mm 5 mps 743 mmHg 76%
    10:00 +13°C° 1.4 mm 5 mps 742 mmHg 81%
    11:00 +10°C° 1.1 mm 6 mps 743 mmHg 81%
    12:00 +6°C° 1.1 mm 7 mps 743 mmHg 81%
    13:00 +4°C° 1.1 mm 8 mps 744 mmHg 81%
    14:00 +4°C° 0.2 mm 7 mps 745 mmHg 76%
    15:00 +5°C° 0.2 mm 7 mps 746 mmHg 71%
    16:00 +6°C° 0.2 mm 7 mps 747 mmHg 67%
    17:00 +7°C° 0.1 mm 6 mps 748 mmHg 63%
    18:00 +7°C° 0.1 mm 6 mps 748 mmHg 59%
    19:00 +7°C° 0.1 mm 5 mps 748 mmHg 56%
    20:00 +6°C° 0 mm 5 mps 748 mmHg 60%
    21:00 +5°C° 0 mm 4 mps 749 mmHg 64%
    22:00 +4°C° 0 mm 3 mps 749 mmHg 69%
    23:00 +3°C° 0 mm 4 mps 749 mmHg 69%

    28 May, Monday

    Time Temperature Precipitation Wind Pressure Humidity
    00:00 +3°C° 0 mm 4 mps 749 mmHg 69%
    01:00 +3°C° 0 mm 4 mps 749 mmHg 69%
    02:00 +3°C° 0 mm 4 mps 749 mmHg 68%
    03:00 +1°C° 0 mm 4 mps 749 mmHg 67%
    04:00 +1°C° 0 mm 4 mps 750 mmHg 65%
    05:00 +1°C° 0 mm 4 mps 750 mmHg 61%
    06:00 +2°C° 0 mm 5 mps 750 mmHg 57%
    07:00 +2°C° 0 mm 5 mps 749 mmHg 53%
    08:00 +2°C° 0 mm 5 mps 749 mmHg 52%
    09:00 +3°C° 0 mm 5 mps 749 mmHg 50%
    10:00 +3°C° 0 mm 5 mps 749 mmHg 49%
    11:00 +3°C° 0 mm 5 mps 749 mmHg 48%
    12:00 +5°C° 0 mm 5 mps 749 mmHg 47%
    13:00 +5°C° 0 mm 5 mps 749 mmHg 46%
    14:00 +6°C° 0 mm 5 mps 749 mmHg 45%
    15:00 +6°C° 0 mm 5 mps 749 mmHg 45%
    16:00 +6°C° 0 mm 5 mps 749 mmHg 44%
    17:00 +6°C° 0 mm 5 mps 749 mmHg 45%
    18:00 +6°C° 0 mm 5 mps 749 mmHg 46%
    19:00 +5°C° 0 mm 4 mps 749 mmHg 47%
    20:00 +4°C° 0 mm 4 mps 749 mmHg 52%
    21:00 +3°C° 0 mm 3 mps 749 mmHg 58%
    22:00 +2°C° 0 mm 3 mps 749 mmHg 63%
    23:00 +1°C° 0 mm 3 mps 749 mmHg 65%
    Show more